Location: Croissy-Beaubourg
(48.8283°N, 2.6696°E)
Time: 22:51:50
(UTC+00:00)

Cosmos 1980 Rocket - Pass Details

Date: 16 October 2021
Orbit: 828 x 851 km, 71.0° (Epoch: 07 December)

Event Time Altitude Azimuth Distance (km) Brightness Sun altitude
Rises 17:16:34 0° 164° (SSE) 3,376 5.3 -3.9°
Reaches altitude 10° 17:19:29 10° 150° (SSE) 2,451 4.4 -4.4°
Maximum altitude 17:23:42 22° 101° (E) 1,762 3.3 -5.1°
Drops below altitude 10° 17:27:56 10° 52° (NE) 2,476 4.1 -5.8°
Sets 17:30:53 0° 38° (NE) 3,420 4.9 -6.2°
